Time,TemperatureF,DewpointF,PressureIn,WindDirection,WindDirectionDegrees,WindSpeedMPH,WindSpeedGustMPH,Humidity,HourlyPrecipIn,Conditions,Clouds,dailyrainin,SoftwareType,DateUTC
2013-09-17 00:02:00,36.0,19.0,-100.00,NNE,30,12.0,23.0,48,0.00,,,0.00,,2013-09-17 08:02:00,
2013-09-17 00:12:00,36.0,19.0,-100.00,NNE,30,12.0,23.0,48,0.00,,,0.00,,2013-09-17 08:12:00,
2013-09-17 00:22:00,35.0,18.0,-100.00,NNE,25,12.0,19.0,49,0.00,,,0.00,,2013-09-17 08:22:00,
2013-09-17 00:32:00,35.0,18.0,-100.00,NNE,25,12.0,19.0,49,0.00,,,0.00,,2013-09-17 08:32:00,
2013-09-17 00:42:00,35.0,18.0,-100.00,NNE,25,12.0,19.0,49,0.00,,,0.00,,2013-09-17 08:42:00,
2013-09-17 00:52:00,35.0,18.0,-100.00,NE,35,11.0,16.0,50,0.00,,,0.00,,2013-09-17 08:52:00,
2013-09-17 01:02:00,35.0,18.0,-100.00,NE,35,11.0,16.0,50,0.00,,,0.00,,2013-09-17 09:02:00,
2013-09-17 01:12:00,35.0,18.0,-100.00,NE,35,11.0,16.0,50,0.00,,,0.00,,2013-09-17 09:12:00,
2013-09-17 01:22:00,35.0,18.0,-100.00,NE,40,11.0,20.0,49,0.00,,,0.00,,2013-09-17 09:22:00,
2013-09-17 01:33:00,35.0,18.0,-100.00,NE,40,11.0,20.0,49,0.00,,,0.00,,2013-09-17 09:33:00,
2013-09-17 01:42:00,35.0,18.0,-100.00,NE,40,11.0,20.0,49,0.00,,,0.00,,2013-09-17 09:42:00,
2013-09-17 01:53:00,34.0,18.0,-100.00,NNE,25,8.0,17.0,50,0.00,,,0.00,,2013-09-17 09:53:00,
2013-09-17 02:03:00,34.0,18.0,-100.00,NNE,25,8.0,17.0,50,0.00,,,0.00,,2013-09-17 10:03:00,
2013-09-17 02:12:00,34.0,18.0,-100.00,NNE,25,8.0,17.0,50,0.00,,,0.00,,2013-09-17 10:12:00,
2013-09-17 02:23:00,33.0,17.0,-100.00,NNE,15,10.0,17.0,51,0.00,,,0.00,,2013-09-17 10:23:00,
2013-09-17 02:32:00,33.0,17.0,-100.00,NNE,15,10.0,17.0,51,0.00,,,0.00,,2013-09-17 10:32:00,
2013-09-17 02:42:00,33.0,17.0,-100.00,NNE,15,10.0,17.0,51,0.00,,,0.00,,2013-09-17 10:42:00,
2013-09-17 02:53:00,33.0,17.0,-100.00,NE,40,13.0,19.0,50,0.00,,,0.00,,2013-09-17 10:53:00,
2013-09-17 03:03:00,33.0,17.0,-100.00,NE,40,13.0,19.0,50,0.00,,,0.00,,2013-09-17 11:03:00,
2013-09-17 03:11:00,33.0,17.0,-100.00,NE,40,13.0,19.0,50,0.00,,,0.00,,2013-09-17 11:11:00,
2013-09-17 03:22:00,33.0,17.0,-100.00,NE,35,11.0,19.0,52,0.00,,,0.00,,2013-09-17 11:22:00,
2013-09-17 03:33:00,33.0,17.0,-100.00,NE,35,11.0,19.0,52,0.00,,,0.00,,2013-09-17 11:33:00,
2013-09-17 03:42:00,33.0,17.0,-100.00,NE,35,11.0,19.0,52,0.00,,,0.00,,2013-09-17 11:42:00,
2013-09-17 03:52:00,32.0,17.0,-100.00,NNE,25,9.0,16.0,52,0.00,,,0.00,,2013-09-17 11:52:00,
2013-09-17 04:02:00,32.0,17.0,-100.00,NNE,25,9.0,16.0,52,0.00,,,0.00,,2013-09-17 12:02:00,
2013-09-17 04:12:00,32.0,17.0,-100.00,NNE,25,9.0,16.0,52,0.00,,,0.00,,2013-09-17 12:12:00,
2013-09-17 04:21:00,31.0,17.0,-100.00,NNE,25,7.0,16.0,56,0.00,,,0.00,,2013-09-17 12:21:00,
2013-09-17 04:32:00,31.0,17.0,-100.00,NNE,25,7.0,16.0,56,0.00,,,0.00,,2013-09-17 12:32:00,
2013-09-17 04:42:00,31.0,17.0,-100.00,NNE,25,7.0,16.0,56,0.00,,,0.00,,2013-09-17 12:42:00,
2013-09-17 04:52:00,31.0,18.0,-100.00,NNE,25,11.0,16.0,58,0.00,,,0.00,,2013-09-17 12:52:00,
2013-09-17 05:02:00,31.0,18.0,-100.00,NNE,25,11.0,16.0,58,0.00,,,0.00,,2013-09-17 13:02:00,
2013-09-17 05:11:00,31.0,18.0,-100.00,NNE,25,11.0,16.0,58,0.00,,,0.00,,2013-09-17 13:11:00,
2013-09-17 05:22:00,30.0,17.0,-100.00,NE,35,9.0,15.0,58,0.00,,,0.00,,2013-09-17 13:22:00,
2013-09-17 05:32:00,30.0,17.0,-100.00,NE,35,9.0,15.0,58,0.00,,,0.00,,2013-09-17 13:32:00,
2013-09-17 05:42:00,30.0,17.0,-100.00,NE,35,9.0,15.0,58,0.00,,,0.00,,2013-09-17 13:42:00,
2013-09-17 05:52:00,30.0,17.0,-100.00,NNE,30,11.0,17.0,56,0.00,,,0.00,,2013-09-17 13:52:00,
2013-09-17 06:02:00,30.0,17.0,-100.00,NNE,30,11.0,17.0,56,0.00,,,0.00,,2013-09-17 14:02:00,
2013-09-17 06:11:00,30.0,17.0,-100.00,NNE,30,11.0,17.0,56,0.00,,,0.00,,2013-09-17 14:11:00,
2013-09-17 06:21:00,30.0,17.0,-100.00,NNE,25,9.0,17.0,57,0.00,,,0.00,,2013-09-17 14:21:00,
2013-09-17 06:32:00,30.0,17.0,-100.00,NNE,25,9.0,17.0,57,0.00,,,0.00,,2013-09-17 14:32:00,
2013-09-17 06:42:00,30.0,17.0,-100.00,NNE,25,9.0,17.0,57,0.00,,,0.00,,2013-09-17 14:42:00,
2013-09-17 06:52:00,29.0,17.0,-100.00,North,10,7.0,14.0,60,0.00,,,0.00,,2013-09-17 14:52:00,
2013-09-17 07:02:00,29.0,17.0,-100.00,North,10,7.0,14.0,60,0.00,,,0.00,,2013-09-17 15:02:00,
2013-09-17 07:11:00,29.0,17.0,-100.00,North,10,7.0,14.0,60,0.00,,,0.00,,2013-09-17 15:11:00,
2013-09-17 07:22:00,28.0,17.0,-100.00,North,5,9.0,14.0,60,0.00,,,0.00,,2013-09-17 15:22:00,
2013-09-17 07:34:00,28.0,17.0,-100.00,North,5,9.0,14.0,60,0.00,,,0.00,,2013-09-17 15:34:00,
2013-09-17 07:44:00,28.0,17.0,-100.00,North,5,9.0,14.0,60,0.00,,,0.00,,2013-09-17 15:44:00,
2013-09-17 07:53:00,26.0,18.0,-100.00,North,10,6.0,11.0,72,0.00,,,0.00,,2013-09-17 15:53:00,
2013-09-17 08:03:00,26.0,18.0,-100.00,North,10,6.0,11.0,72,0.00,,,0.00,,2013-09-17 16:03:00,
2013-09-17 08:12:00,26.0,18.0,-100.00,North,10,6.0,11.0,72,0.00,,,0.00,,2013-09-17 16:12:00,
2013-09-17 08:23:00,28.0,19.0,-100.00,NE,35,11.0,17.0,68,0.00,,,0.00,,2013-09-17 16:23:00,
2013-09-17 08:32:00,28.0,19.0,-100.00,NE,35,11.0,17.0,68,0.00,,,0.00,,2013-09-17 16:32:00,
2013-09-17 08:42:00,28.0,19.0,-100.00,NE,35,11.0,17.0,68,0.00,,,0.00,,2013-09-17 16:42:00,
2013-09-17 08:53:00,29.0,17.0,-100.00,NE,35,12.0,19.0,62,0.00,,,0.00,,2013-09-17 16:53:00,
2013-09-17 09:03:00,29.0,17.0,-100.00,NE,35,12.0,19.0,62,0.00,,,0.00,,2013-09-17 17:03:00,
2013-09-17 09:12:00,29.0,17.0,-100.00,NE,35,12.0,19.0,62,0.00,,,0.00,,2013-09-17 17:12:00,
2013-09-17 09:23:00,28.0,17.0,-100.00,NNE,30,9.0,12.0,64,0.00,,,0.00,,2013-09-17 17:23:00,
2013-09-17 09:34:00,28.0,17.0,-100.00,NNE,30,9.0,12.0,64,0.00,,,0.00,,2013-09-17 17:34:00,
2013-09-17 09:43:00,28.0,17.0,-100.00,NNE,30,9.0,12.0,64,0.00,,,0.00,,2013-09-17 17:43:00,
2013-09-17 09:53:00,26.0,18.0,-100.00,NNE,20,6.0,7.0,72,0.00,,,0.00,,2013-09-17 17:53:00,
2013-09-17 10:02:00,26.0,18.0,-100.00,NNE,20,6.0,7.0,72,0.00,,,0.00,,2013-09-17 18:02:00,
2013-09-17 10:12:00,26.0,18.0,-100.00,NNE,20,6.0,7.0,72,0.00,,,0.00,,2013-09-17 18:12:00,
2013-09-17 10:21:00,27.0,19.0,-100.00,North,5,4.0,9.0,71,0.00,,,0.00,,2013-09-17 18:21:00,
2013-09-17 10:32:00,27.0,19.0,-100.00,North,5,4.0,9.0,71,0.00,,,0.00,,2013-09-17 18:32:00,
2013-09-17 10:42:00,27.0,19.0,-100.00,North,5,4.0,9.0,71,0.00,,,0.00,,2013-09-17 18:42:00,
2013-09-17 10:52:00,28.0,19.0,-100.00,North,5,5.0,7.0,70,0.00,,,0.00,,2013-09-17 18:52:00,
2013-09-17 11:02:00,28.0,19.0,-100.00,North,5,5.0,7.0,70,0.00,,,0.00,,2013-09-17 19:02:00,
2013-09-17 11:11:00,28.0,19.0,-100.00,North,5,5.0,7.0,70,0.00,,,0.00,,2013-09-17 19:11:00,
2013-09-17 11:21:00,29.0,19.0,-100.00,NNE,20,4.0,6.0,67,0.00,,,0.00,,2013-09-17 19:21:00,
2013-09-17 11:32:00,29.0,19.0,-100.00,NNE,20,4.0,6.0,67,0.00,,,0.00,,2013-09-17 19:32:00,
2013-09-17 11:42:00,29.0,19.0,-100.00,NNE,20,4.0,6.0,67,0.00,,,0.00,,2013-09-17 19:42:00,
2013-09-17 11:52:00,31.0,19.0,-100.00,NE,35,4.0,10.0,59,0.00,,,0.00,,2013-09-17 19:52:00,
2013-09-17 12:02:00,31.0,19.0,-100.00,NE,35,4.0,10.0,59,0.00,,,0.00,,2013-09-17 20:02:00,
2013-09-17 12:11:00,31.0,19.0,-100.00,NE,35,4.0,10.0,59,0.00,,,0.00,,2013-09-17 20:11:00,
2013-09-17 12:22:00,31.0,18.0,-100.00,NNE,20,4.0,7.0,57,0.00,,,0.00,,2013-09-17 20:22:00,
2013-09-17 12:32:00,31.0,18.0,-100.00,NNE,20,4.0,7.0,57,0.00,,,0.00,,2013-09-17 20:32:00,
2013-09-17 12:42:00,31.0,18.0,-100.00,NNE,20,4.0,7.0,57,0.00,,,0.00,,2013-09-17 20:42:00,
2013-09-17 12:52:00,32.0,19.0,-100.00,North,0,1.0,5.0,58,0.00,,,0.00,,2013-09-17 20:52:00,
2013-09-17 13:01:00,32.0,19.0,-100.00,North,0,1.0,5.0,58,0.00,,,0.00,,2013-09-17 21:01:00,
2013-09-17 13:12:00,32.0,19.0,-100.00,North,0,1.0,5.0,58,0.00,,,0.00,,2013-09-17 21:12:00,
2013-09-17 13:22:00,33.0,18.0,-100.00,NE,50,3.0,5.0,55,0.00,,,0.00,,2013-09-17 21:22:00,
2013-09-17 13:34:00,33.0,18.0,-100.00,NE,50,3.0,5.0,55,0.00,,,0.00,,2013-09-17 21:34:00,
2013-09-17 13:44:00,33.0,18.0,-100.00,NE,50,3.0,5.0,55,0.00,,,0.00,,2013-09-17 21:44:00,
2013-09-17 13:54:00,34.0,18.0,-100.00,NE,35,4.0,9.0,52,0.00,,,0.00,,2013-09-17 21:54:00,
2013-09-17 14:04:00,34.0,18.0,-100.00,NE,35,4.0,9.0,52,0.00,,,0.00,,2013-09-17 22:04:00,
2013-09-17 14:13:00,34.0,18.0,-100.00,NE,35,4.0,9.0,52,0.00,,,0.00,,2013-09-17 22:13:00,
2013-09-17 14:24:00,34.0,18.0,-100.00,NE,55,2.0,8.0,52,0.00,,,0.00,,2013-09-17 22:24:00,
2013-09-17 14:33:00,34.0,18.0,-100.00,NE,55,2.0,8.0,52,0.00,,,0.00,,2013-09-17 22:33:00,
2013-09-17 14:43:00,34.0,18.0,-100.00,NE,55,2.0,8.0,52,0.00,,,0.00,,2013-09-17 22:43:00,
2013-09-17 14:53:00,35.0,19.0,-100.00,NNE,30,6.0,9.0,50,0.00,,,0.00,,2013-09-17 22:53:00,
2013-09-17 15:03:00,35.0,19.0,-100.00,NNE,30,6.0,9.0,50,0.00,,,0.00,,2013-09-17 23:03:00,
2013-09-17 15:12:00,35.0,19.0,-100.00,NNE,30,6.0,9.0,50,0.00,,,0.00,,2013-09-17 23:12:00,
2013-09-17 15:21:00,36.0,19.0,-100.00,NNE,20,2.0,5.0,49,0.00,,,0.00,,2013-09-17 23:21:00,
2013-09-17 15:34:00,36.0,19.0,-100.00,NNE,20,2.0,5.0,49,0.00,,,0.00,,2013-09-17 23:34:00,
2013-09-17 15:42:00,36.0,19.0,-100.00,NNE,20,2.0,5.0,49,0.00,,,0.00,,2013-09-17 23:42:00,
2013-09-17 15:52:00,36.0,19.0,-100.00,NE,45,1.0,5.0,49,0.00,,,0.00,,2013-09-17 23:52:00,
2013-09-17 16:02:00,36.0,19.0,-100.00,NE,45,1.0,5.0,49,0.00,,,0.00,,2013-09-18 00:02:00,
2013-09-17 16:11:00,36.0,19.0,-100.00,NE,45,1.0,5.0,49,0.00,,,0.00,,2013-09-18 00:11:00,
2013-09-17 16:22:00,37.0,20.0,-100.00,NNW,335,1.0,2.0,48,0.00,,,0.00,,2013-09-18 00:22:00,
2013-09-17 16:32:00,37.0,20.0,-100.00,NNW,335,1.0,2.0,48,0.00,,,0.00,,2013-09-18 00:32:00,
2013-09-17 16:42:00,37.0,20.0,-100.00,NNW,335,1.0,2.0,48,0.00,,,0.00,,2013-09-18 00:42:00,
2013-09-17 16:52:00,36.0,19.0,-100.00,WNW,295,4.0,7.0,49,0.00,,,0.00,,2013-09-18 00:52:00,
2013-09-17 17:01:00,36.0,19.0,-100.00,WNW,295,4.0,7.0,49,0.00,,,0.00,,2013-09-18 01:01:00,
2013-09-17 17:11:00,36.0,19.0,-100.00,WNW,295,4.0,7.0,49,0.00,,,0.00,,2013-09-18 01:11:00,
2013-09-17 17:21:00,36.0,20.0,-100.00,NNW,335,2.0,8.0,50,0.00,,,0.00,,2013-09-18 01:21:00,
2013-09-17 17:32:00,36.0,20.0,-100.00,NNW,335,2.0,8.0,50,0.00,,,0.00,,2013-09-18 01:32:00,
2013-09-17 17:42:00,36.0,20.0,-100.00,NNW,335,2.0,8.0,50,0.00,,,0.00,,2013-09-18 01:42:00,
2013-09-17 17:52:00,35.0,19.0,-100.00,WNW,290,3.0,6.0,53,0.00,,,0.00,,2013-09-18 01:52:00,
2013-09-17 18:03:00,35.0,19.0,-100.00,WNW,290,3.0,6.0,53,0.00,,,0.00,,2013-09-18 02:03:00,
2013-09-17 18:11:00,35.0,19.0,-100.00,WNW,290,3.0,6.0,53,0.00,,,0.00,,2013-09-18 02:11:00,
2013-09-17 18:22:00,34.0,20.0,-100.00,NW,325,4.0,7.0,56,0.00,,,0.00,,2013-09-18 02:22:00,
2013-09-17 18:32:00,34.0,20.0,-100.00,NW,325,4.0,7.0,56,0.00,,,0.00,,2013-09-18 02:32:00,
2013-09-17 18:43:00,34.0,20.0,-100.00,NW,325,4.0,7.0,56,0.00,,,0.00,,2013-09-18 02:43:00,
2013-09-17 18:52:00,33.0,21.0,-100.00,NNW,345,3.0,7.0,61,0.00,,,0.00,,2013-09-18 02:52:00,
2013-09-17 19:02:00,33.0,21.0,-100.00,NNW,345,3.0,7.0,61,0.00,,,0.00,,2013-09-18 03:02:00,
2013-09-17 19:11:00,33.0,21.0,-100.00,NNW,345,3.0,7.0,61,0.00,,,0.00,,2013-09-18 03:11:00,
2013-09-17 19:23:00,32.0,21.0,-100.00,NNW,335,3.0,7.0,64,0.00,,,0.00,,2013-09-18 03:23:00,
2013-09-17 19:35:00,32.0,21.0,-100.00,NNW,335,3.0,7.0,64,0.00,,,0.00,,2013-09-18 03:35:00,
2013-09-17 19:44:00,32.0,21.0,-100.00,NNW,335,3.0,7.0,64,0.00,,,0.00,,2013-09-18 03:44:00,
2013-09-17 19:54:00,31.0,21.0,-100.00,North,355,4.0,6.0,66,0.00,,,0.00,,2013-09-18 03:54:00,
2013-09-17 20:04:00,31.0,21.0,-100.00,North,355,4.0,6.0,66,0.00,,,0.00,,2013-09-18 04:04:00,
2013-09-17 20:14:00,31.0,21.0,-100.00,North,355,4.0,6.0,66,0.00,,,0.00,,2013-09-18 04:14:00,
2013-09-17 20:24:00,30.0,22.0,-100.00,NNW,345,3.0,6.0,71,0.00,,,0.00,,2013-09-18 04:24:00,
2013-09-17 20:34:00,30.0,22.0,-100.00,NNW,345,3.0,6.0,71,0.00,,,0.00,,2013-09-18 04:34:00,
2013-09-17 20:44:00,30.0,22.0,-100.00,NNW,345,3.0,6.0,71,0.00,,,0.00,,2013-09-18 04:44:00,
2013-09-17 20:54:00,29.0,24.0,-100.00,NW,325,3.0,6.0,79,0.00,,,0.00,,2013-09-18 04:54:00,
2013-09-17 21:04:00,29.0,24.0,-100.00,NW,325,3.0,6.0,79,0.00,,,0.00,,2013-09-18 05:04:00,
2013-09-17 21:12:00,29.0,24.0,-100.00,NW,325,3.0,6.0,79,0.00,,,0.00,,2013-09-18 05:12:00,
2013-09-17 21:23:00,29.0,25.0,-100.00,North,0,3.0,6.0,84,0.00,,,0.00,,2013-09-18 05:23:00,
2013-09-17 21:33:00,29.0,25.0,-100.00,North,0,3.0,6.0,84,0.00,,,0.00,,2013-09-18 05:33:00,
2013-09-17 21:42:00,29.0,25.0,-100.00,North,0,3.0,6.0,84,0.00,,,0.00,,2013-09-18 05:42:00,
2013-09-17 21:52:00,29.0,25.0,-100.00,NNE,25,3.0,6.0,87,0.00,,,0.00,,2013-09-18 05:52:00,
2013-09-17 22:02:00,29.0,25.0,-100.00,NNE,25,3.0,6.0,87,0.00,,,0.00,,2013-09-18 06:02:00,
2013-09-17 22:12:00,29.0,25.0,-100.00,NNE,25,3.0,6.0,87,0.00,,,0.00,,2013-09-18 06:12:00,
2013-09-17 22:22:00,29.0,26.0,-100.00,NW,310,2.0,6.0,89,0.00,,,0.00,,2013-09-18 06:22:00,
2013-09-17 22:33:00,29.0,26.0,-100.00,NW,310,2.0,6.0,89,0.00,,,0.00,,2013-09-18 06:33:00,
2013-09-17 22:42:00,29.0,26.0,-100.00,NW,310,2.0,6.0,89,0.00,,,0.00,,2013-09-18 06:42:00,
2013-09-17 22:52:00,29.0,26.0,-100.00,North,0,2.0,7.0,90,0.00,,,0.00,,2013-09-18 06:52:00,
2013-09-17 23:01:00,29.0,26.0,-100.00,North,0,2.0,7.0,90,0.00,,,0.00,,2013-09-18 07:01:00,
2013-09-17 23:12:00,29.0,26.0,-100.00,North,0,2.0,7.0,90,0.00,,,0.00,,2013-09-18 07:12:00,
2013-09-17 23:22:00,28.0,26.0,-100.00,North,0,3.0,5.0,91,0.00,,,0.00,,2013-09-18 07:22:00,
2013-09-17 23:32:00,28.0,26.0,-100.00,North,0,3.0,5.0,91,0.00,,,0.00,,2013-09-18 07:32:00,
2013-09-17 23:42:00,28.0,26.0,-100.00,North,0,3.0,5.0,91,0.00,,,0.00,,2013-09-18 07:42:00,
2013-09-17 23:52:00,28.0,26.0,-100.00,North,355,2.0,4.0,91,0.00,,,0.00,,2013-09-18 07:52:00,